Flag Weather past 2 weeks in Santa Rosa, California, U.S.A.

Now
68 °F

Sunny.


Feels Like: 68 °F
Forecast: 37 / 65 °F
Wind: No wind

Location: Santa Rosa Sonoma County Airport

Current Time: Nov 24, 2014 at 3:12:44 PM

Latest Report: Nov 24, 2014 at 2:53 PM


Visibility: 10 mi

Pressure: 30.30 "Hg

Humidity: 42%

Dew point: 44 °F

Location of Santa RosaLocation

Historic Weather in Santa Rosa — Graph

°F

Santa Rosa temperature yesterday

Maximum temperature yesterday: 65 °F (at 1:53 PM)
Minimum temperature yesterday: 41 °F (at 5:53 AM)
Average temperature yesterday: 51 °F

Past Weeks' High & Low Weather Summary

 TemperatureHumidityPressure
High77 °F (Nov 9, 1:53 PM)100% (Nov 10, 1:00 AM)30.38 "Hg (Nov 10, 1:00 AM)
Low36 °F (Nov 17, 6:53 AM)28% (Nov 17, 2:53 PM)29.75 "Hg (Nov 10, 2:53 PM)
Average54 °F81%30.05 "Hg
* Reported Nov 9 1:53 PM — Nov 24 1:53 PM, Santa Rosa, Weather by CustomWeather, © 2014

Note: Actual official high and low records may vary slightly from our data, if they occured in-between our weather recording intervals... More about our weather records

Advertising

Santa Rosa weather history for previous 24 hours

 ConditionsComfort  
Time TempWeatherWind HumidityBarometerVisibility
1:53 PM
Nov 24
66 °FSunny.No wind43%30.31 "Hg10 mi
12:53 PM63 °FSunny.3 mph52%30.34 "Hg10 mi
11:53 AM61 °FPassing clouds.No wind56%30.35 "Hg10 mi
10:53 AM57 °FPassing clouds.No wind64%30.38 "Hg10 mi
9:53 AM53 °FPassing clouds.No wind72%30.38 "Hg10 mi
8:53 AM47 °FScattered clouds.6 mph86%30.38 "Hg10 mi
7:53 AM42 °FScattered clouds.3 mph96%30.37 "Hg10 mi
6:53 AM38 °FClear.6 mph97%30.36 "Hg10 mi
5:53 AM38 °FClear.No wind100%30.34 "Hg9 mi
4:53 AM39 °FClear.3 mph100%30.32 "Hg10 mi
3:53 AM40 °FClear.3 mph97%30.31 "Hg10 mi
2:53 AM40 °FClear.5 mph97%30.32 "Hg10 mi
1:53 AM41 °FClear.5 mph96%30.31 "Hg10 mi
12:53 AM42 °FClear.5 mph92%30.31 "Hg10 mi
11:53 PM
Nov 23
43 °FClear.No wind97%30.32 "Hg7 mi
10:53 PM44 °FClear.No wind93%30.31 "Hg9 mi
9:53 PM46 °FClear.No wind93%30.30 "Hg10 mi
8:53 PM46 °FClear.3 mph93%30.29 "Hg10 mi
7:53 PM47 °FClear.5 mph93%30.28 "Hg10 mi
6:53 PM52 °FClear.No wind72%30.26 "Hg10 mi
5:53 PM54 °FPassing clouds.3 mph67%30.25 "Hg10 mi
4:53 PM59 °FPassing clouds.5 mph62%30.24 "Hg10 mi
3:53 PM64 °FOvercast.No wind41%30.24 "Hg10 mi
Weather by CustomWeather, © 2014

See weather overviewHow to use our weather pages